Flag for Poland Weather past 2 weeks in Kalisz, Poland

Now
54 °F

Overcast.


Feels Like: 53 °F
Forecast: 46 / 69 °F
Wind: 6 mph from East

Location: Kalisz


UV Index: 3 (Moderate)

Visibility: 11 mi


Pressure: 29.96 "Hg

Humidity: 76%

Dew point: 47 °F

Location of KaliszLocation

Historic Weather in Kalisz

°F

Kalisz temperature yesterday

Maximum temperature yesterday: 70 °F (at 5:00 PM)
Minimum temperature yesterday: 44 °F (at 5:00 AM)
Average temperature yesterday: 58 °F

Past Weeks' High & Low Weather Summary

 TemperatureHumidityPressure
High70 °F (Apr 8, 2:00 PM)100% (Apr 11, 3:00 AM)30.42 "Hg (Apr 11, 3:00 AM)
Low30 °F (Apr 17, 6:00 AM)33% (Apr 19, 6:00 PM)29.65 "Hg (Apr 14, 3:00 PM)
Average48 °F73%30.01 "Hg
* Reported Apr 5 7:00 AM — Apr 20 7:00 AM, Kalisz, Weather by CustomWeather, © 2014

Note: Actual official high and low records may vary slightly from our data, if they occured in-between our weather recording intervals... More about our weather records

Advertising

Historic Weather Conditions — Data for Previous 24 hours

 ConditionsComfort  
Time TempWeatherWind HumidityBarometerVisibility
7:00 AM
Apr 20
52 °FOvercast.3 mph79%29.96 "Hg9 mi
6:00 AM51 °FOvercast.5 mph82%29.95 "Hg9 mi
5:00 AM53 °FOvercast.3 mph76%29.96 "Hg16 mi
4:00 AM54 °FOvercast.3 mph73%29.96 "Hg16 mi
3:00 AM55 °FOvercast.3 mph74%29.97 "Hg14 mi
2:00 AM56 °FOvercast.3 mph72%29.96 "Hg16 mi
1:00 AM56 °FOvercast.5 mph70%29.97 "Hg16 mi
12:00 AM57 °FOvercast.3 mph68%29.98 "Hg12 mi
11:00 PM
Apr 19
57 °FOvercast.2 mph64%29.99 "Hg11 mi
10:00 PM59 °FOvercast.6 mph58%29.98 "Hg14 mi
9:00 PM61 °FOvercast.5 mph56%29.97 "Hg9 mi
8:00 PM65 °FOvercast.3 mph41%29.95 "Hg12 mi
7:00 PM67 °FOvercast.7 mph37%29.93 "Hg16 mi
6:00 PM69 °FOvercast.8 mph33%29.93 "Hg16 mi
5:00 PM70 °FOvercast.9 mph34%29.94 "Hg16 mi
4:00 PM69 °FOvercast.9 mph35%29.94 "Hg16 mi
3:00 PM68 °FOvercast.10 mph38%29.96 "Hg16 mi
2:00 PM69 °FOvercast.9 mph42%29.98 "Hg19 mi
1:00 PM68 °FPartly sunny.9 mph40%29.98 "Hg19 mi
12:00 PM67 °FPassing clouds.8 mph48%30.00 "Hg16 mi
11:00 AM65 °FSunny.7 mph55%30.01 "Hg12 mi
10:00 AM62 °FSunny.6 mph64%30.01 "Hg12 mi
9:00 AM57 °FSunny.6 mph76%30.01 "Hg9 mi
Weather by CustomWeather, © 2014

See weather overview